Belen, NM

6:37 AM MST on January 23, 2017 (GMT -0700)
Belen

Weather History for KE80 - February, 2013

Change the Weather History Date:

Tuesday, February 26, 2013

  Actual Average (KABQ) Record (KABQ)
Temperature  
Mean Temperature 34 °F -  
Max Temperature 51 °F 57 °F 74 °F (1986)
Min Temperature 18 °F 30 °F 13 °F (1935)
Degree Days  
Heating Degree Days 30    
Moisture  
Dew Point 7 °F    
Average Humidity 37    
Maximum Humidity 77    
Minimum Humidity 13    
Precipitation  
Precipitation 0.00 in - - ()
Sea Level Pressure  
Sea Level Pressure 29.93 in    
Wind  
Wind Speed 9 mph (WNW)    
Max Wind Speed 33 mph    
Max Gust Speed 43 mph    
Visibility 10 miles    
Events      
Averages and records for this station are not official NWS values.
T = Trace of Precipitation, MM = Missing Value Source: NWS Daily Summary

Daily Weather History Graph

Daily Weather History Graph

Search for Another Location

Airport or City:

Trip Planner

Search our weather history database for the weather conditions in past years. The results will help you decide how hot, cold, wet, or windy it might be!

Date:

Astronomy

Feb. 26, 2013 Rise Set
Actual Time 6:39 AM MST 6:00 PM MST
Civil Twilight 6:14 AM MST 6:26 PM MST
Nautical Twilight 5:45 AM MST 6:55 PM MST
Astronomical Twilight 5:16 AM MST 7:24 PM MST
Moon 7:14 PM MST (2/26) 6:48 AM MST (2/26)
Length of Visible Light 12h 11m
Length of Day
11h 21m
Full, 99% of the Moon is Illuminated
Feb 26
Full
Mar 4
Last Quarter
Mar 11
New
Mar 19
First Quarter
Mar 27
Full

Hourly Weather History & Observations

Time (MST) Temp. Windchill Dew Point Humidity Pressure Visibility Wind Dir Wind Speed Gust Speed Precip Events Conditions
12:15 AM 28.9 °F 25.2 °F 15.1 °F 56% 29.95 in 10.0 mi NE 3.5 mph - N/A   Clear
12:35 AM 29.7 °F - 15.8 °F 56% 29.94 in 10.0 mi Calm Calm - N/A   Clear
12:55 AM 29.7 °F - 15.4 °F 55% 29.94 in 10.0 mi Calm Calm - N/A   Clear
1:15 AM 27.9 °F - 15.6 °F 60% 29.94 in 10.0 mi Calm Calm - N/A   Clear
1:35 AM 29.5 °F - 16.2 °F 58% 29.94 in 10.0 mi Calm Calm - N/A   Clear
1:55 AM 28.2 °F - 16.0 °F 60% 29.93 in 10.0 mi Calm Calm - N/A   Clear
2:15 AM 27.5 °F 23.6 °F 16.3 °F 63% 29.92 in 10.0 mi SSW 3.5 mph - N/A   Clear
2:35 AM 28.4 °F - 15.4 °F 58% 29.93 in 10.0 mi Calm Calm - N/A   Clear
2:55 AM 23.7 °F 17.8 °F 15.4 °F 71% 29.92 in 10.0 mi East 4.6 mph - N/A   Clear
3:15 AM 26.4 °F - 15.4 °F 63% 29.91 in 10.0 mi Calm Calm - N/A   Clear
3:35 AM 24.1 °F 19.7 °F 15.3 °F 69% 29.91 in 10.0 mi East 3.5 mph - N/A   Clear
3:55 AM 24.6 °F - 15.1 °F 67% 29.91 in 10.0 mi Calm Calm - N/A   Clear
4:15 AM 24.3 °F - 15.1 °F 68% 29.91 in 10.0 mi Calm Calm - N/A   Clear
4:35 AM 24.8 °F - 15.8 °F 69% 29.91 in 10.0 mi Calm Calm - N/A   Clear
4:55 AM 24.3 °F - 14.9 °F 68% 29.91 in 10.0 mi Calm Calm - N/A   Clear
5:15 AM 21.6 °F - 14.0 °F 73% 29.91 in 10.0 mi Calm Calm - N/A   Clear
5:35 AM 22.3 °F - 14.5 °F 72% 29.91 in 10.0 mi Calm Calm - N/A   Clear
5:55 AM 21.6 °F - 14.0 °F 73% 29.91 in 10.0 mi Calm Calm - N/A   Clear
6:15 AM 18.5 °F 13.3 °F 12.4 °F 77% 29.91 in 10.0 mi SSE 3.5 mph - N/A   Clear
6:35 AM 20.7 °F - 13.1 °F 73% 29.91 in 10.0 mi Calm Calm - N/A   Clear
6:55 AM 21.2 °F - 13.6 °F 73% 29.90 in 10.0 mi Calm Calm - N/A   Clear
7:15 AM 20.3 °F 13.8 °F 14.2 °F 77% 29.89 in 10.0 mi South 4.6 mph - N/A   Clear
7:35 AM 24.4 °F 18.6 °F 17.2 °F 74% 29.89 in 10.0 mi South 4.6 mph - N/A   Clear
7:55 AM 31.8 °F 26.2 °F 16.0 °F 52% 29.90 in 10.0 mi SSW 5.8 mph - N/A   Clear
8:15 AM 34.5 °F 30.4 °F 14.4 °F 44% 29.90 in 10.0 mi South 4.6 mph - N/A   Clear
8:35 AM 35.8 °F 30.1 °F 12.9 °F 39% 29.90 in 10.0 mi South 6.9 mph - N/A   Clear
8:55 AM 38.8 °F 32.6 °F 12.6 °F 34% 29.90 in 10.0 mi SW 9.2 mph - N/A   Clear
9:15 AM 41.0 °F 34.3 °F 11.8 °F 30% 29.90 in 10.0 mi SW 11.5 mph - N/A   Clear
9:35 AM 44.8 °F 38.7 °F 10.9 °F 25% 29.89 in 10.0 mi SW 12.7 mph - N/A   Clear
9:55 AM 45.5 °F 42.5 °F 11.1 °F 25% 29.89 in 10.0 mi WSW 5.8 mph - N/A   Clear
10:15 AM 47.3 °F - 9.5 °F 22% 29.88 in 10.0 mi WNW 15.0 mph 20.7 mph N/A   Clear
10:35 AM 48.0 °F - 9.7 °F 21% 29.88 in 10.0 mi WNW 10.4 mph - N/A   Clear
10:55 AM 49.3 °F - 8.8 °F 19% 29.88 in 10.0 mi WNW 23.0 mph 28.8 mph N/A   Clear
11:15 AM 49.5 °F - 9.5 °F 20% 29.88 in 10.0 mi WNW 18.4 mph 28.8 mph N/A   Clear
11:35 AM 50.0 °F - 10.0 °F 20% 29.87 in 10.0 mi WNW 17.3 mph 27.6 mph N/A   Clear
11:55 AM 51.3 °F - 8.2 °F 18% 29.87 in 10.0 mi West 27.6 mph 34.5 mph N/A   Clear
12:15 PM 50.9 °F - 7.3 °F 17% 29.86 in 10.0 mi West 27.6 mph 35.7 mph N/A   Clear
12:35 PM 50.5 °F - 6.6 °F 17% 29.86 in 10.0 mi West 31.1 mph 40.3 mph N/A   Clear
1:15 PM 50.7 °F - 5.7 °F 16% 29.84 in 10.0 mi WNW 28.8 mph 40.3 mph N/A   Clear
1:35 PM 50.9 °F - 5.5 °F 16% 29.84 in 10.0 mi West 26.5 mph 39.1 mph N/A   Clear
1:55 PM 51.4 °F - 3.9 °F 14% 29.84 in 10.0 mi West 29.9 mph 39.1 mph N/A   Clear
2:15 PM 51.3 °F - 1.6 °F 13% 29.83 in 10.0 mi West 33.4 mph 42.6 mph N/A   Clear
2:35 PM 51.6 °F - 1.9 °F 13% 29.84 in 10.0 mi WNW 26.5 mph 36.8 mph N/A   Clear
2:55 PM 50.0 °F - 3.2 °F 15% 29.85 in 10.0 mi NW 25.3 mph 39.1 mph N/A   Clear
3:15 PM 49.8 °F - 3.2 °F 15% 29.86 in 10.0 mi WNW 26.5 mph 31.1 mph N/A   Clear
3:35 PM 49.3 °F - 1.9 °F 14% 29.87 in 10.0 mi WNW 29.9 mph 33.4 mph N/A   Clear
3:55 PM 47.3 °F - 0.7 °F 15% 29.88 in 10.0 mi NNW 23.0 mph 35.7 mph N/A   Scattered Clouds
4:15 PM 46.8 °F - 0.5 °F 15% 29.88 in 10.0 mi WNW 26.5 mph 32.2 mph N/A   Scattered Clouds
4:35 PM 46.6 °F - 1.0 °F 15% 29.89 in 10.0 mi NW 24.2 mph 32.2 mph N/A   Clear
4:55 PM 45.5 °F 36.5 °F 2.1 °F 17% 29.90 in 10.0 mi WNW 26.5 mph 32.2 mph N/A   Clear
5:15 PM 44.2 °F 35.2 °F -0.4 °F 16% 29.91 in 10.0 mi NW 24.2 mph 32.2 mph N/A   Clear
5:35 PM 42.8 °F 32.9 °F -2.6 °F 15% 29.91 in 10.0 mi NW 26.5 mph 33.4 mph N/A   Clear
5:55 PM 41.5 °F 31.2 °F -3.8 °F 15% 29.93 in 10.0 mi NW 26.5 mph 31.1 mph N/A   Clear
6:15 PM 40.3 °F 30.4 °F -4.9 °F 15% 29.94 in 10.0 mi NW 21.9 mph 29.9 mph N/A   Clear
6:35 PM 38.8 °F 30.0 °F -6.2 °F 15% 29.95 in 10.0 mi NW 16.1 mph - N/A   Clear
6:55 PM 38.3 °F 29.0 °F -6.9 °F 15% 29.97 in 10.0 mi NW 17.3 mph 24.2 mph N/A   Clear
7:15 PM 37.4 °F 27.5 °F -6.3 °F 15% 29.99 in 10.0 mi NW 18.4 mph - N/A   Clear
7:35 PM 35.8 °F 25.7 °F -4.0 °F 18% 30.00 in 10.0 mi NW 17.3 mph 21.9 mph N/A   Clear
7:55 PM 36.0 °F 25.0 °F -3.3 °F 19% 30.01 in 10.0 mi NW 20.7 mph 28.8 mph N/A   Clear
8:15 PM 34.9 °F 23.9 °F -1.7 °F 21% 30.02 in 10.0 mi NNW 19.6 mph 24.2 mph N/A   Clear
8:35 PM 34.7 °F 24.7 °F -0.0 °F 23% 30.03 in 10.0 mi NW 16.1 mph - N/A   Clear
8:55 PM 34.0 °F 24.2 °F 1.4 °F 25% 30.05 in 10.0 mi NW 15.0 mph 25.3 mph N/A   Clear
9:15 PM 32.9 °F 22.0 °F 1.9 °F 27% 30.05 in 10.0 mi WNW 17.3 mph - N/A   Clear
9:35 PM 31.8 °F 22.8 °F 1.4 °F 27% 30.07 in 10.0 mi NW 11.5 mph - N/A   Clear
9:55 PM 29.3 °F 19.6 °F 1.0 °F 30% 30.07 in 10.0 mi WNW 11.5 mph - N/A   Clear
10:15 PM 29.8 °F 21.5 °F 0.9 °F 29% 30.08 in 10.0 mi NW 9.2 mph - N/A   Clear
10:35 PM 28.9 °F 20.4 °F 0.5 °F 30% 30.08 in 10.0 mi NW 9.2 mph - N/A   Clear
10:55 PM 28.0 °F 18.6 °F 0.3 °F 30% 30.08 in 10.0 mi NW 10.4 mph - N/A   Clear
11:15 PM 27.3 °F 19.9 °F 0.1 °F 31% 30.09 in 10.0 mi NW 6.9 mph - N/A   Clear
11:35 PM 25.0 °F 15.5 °F 0.1 °F 34% 30.09 in 10.0 mi WNW 9.2 mph - N/A   Clear
11:55 PM 24.8 °F 16.1 °F 0.5 °F 35% 30.10 in 10.0 mi NNW 8.1 mph - N/A   Clear